Regional Weather Roundup
Issued by NWS

Home | Current Version | Previous Version | Text Only | Print | Product List | Glossary Off
Versions: 1 2 3 4 5 6 7 8 9 10 11 12 13 14 15 16 17 18 19 20 21 22 23 24 25 26 27 28 29 30 31 32 33 34 35 36 37 38 39 40 41 42 43 44 45 46 47 48 49 50

000
ASUS43 KOAX 181210
RWRNE

WEATHER ROUNDUP FOR NEBRASKA
NATIONAL WEATHER SERVICE OMAHA NE
600 AM CST WED JAN 18 2017

NOTES: SATELLITE DATA IS BEING USED TO AUGMENT CLOUD COVER ABOVE
       12000 FEET.
       "FAIR" INDICATES FEW OR NO CLOUDS BELOW 12,000 FEET WITH NO
       SIGNIFICANT WEATHER AND/OR OBSTRUCTIONS TO VISIBILITY.

  * THESE STATIONS DO NOT REPORT WEATHER SUCH AS RAIN...SNOW OR FOG.

NEZ001>004-019>022-054>056-181300-
NEBRASKA PANHANDLE

CITY           SKY/WX    TMP DP  RH WIND       PRES   REMARKS
SCOTTSBLUFF    CLOUDY    26  15  63 NW8       29.92F WCI  18
6HR MIN TEMP:  18; 6HR MAX TEMP:  28;

ALLIANCE       CLOUDY    19  13  77 W6        29.89F WCI  11
6HR MIN TEMP:  14; 6HR MAX TEMP:  21;

CHADRON        CLOUDY    21  14  74 W9        29.91F WCI  11
6HR MIN TEMP:  17; 6HR MAX TEMP:  27;

KIMBALL        CLOUDY    23  19  81 W6        29.94R WCI  16
SIDNEY         CLOUDY    23  16  74 NW9       29.93F WCI  13
6HR MIN TEMP:  19; 6HR MAX TEMP:  26;

$$

NEZ057>060-069>072-079>082-181300-
SOUTHWEST NEBRASKA

CITY           SKY/WX    TMP DP  RH WIND       PRES   REMARKS
NORTH PLATTE   CLOUDY    24  21  88 S5        29.95F WCI  18
6HR MIN TEMP:  21; 6HR MAX TEMP:  33;

IMPERIAL       CLOUDY    23  19  85 W5        29.95S WCI  17
6HR MIN TEMP:  22; 6HR MAX TEMP:  33;

LEXINGTON      CLEAR     31  28  87 W3        29.96F
MCCOOK         CLOUDY    25  24  96 W7        29.96F WCI  17
6HR MIN TEMP:  24; 6HR MAX TEMP:  31;

OGALLALA       CLOUDY    18  16  90 W9        29.93F WCI   7
$$

NEZ005>010-023>029-035>040-094-181300-
NORTH CENTRAL NEBRASKA

CITY           SKY/WX    TMP DP  RH WIND       PRES   REMARKS
VALENTINE      CLOUDY    20  16  84 SW8       29.88F WCI  10
6HR MIN TEMP:  20; 6HR MAX TEMP:  26;

AINSWORTH      CLOUDY    24  22  91 SW5       29.88F WCI  18
BROKEN BOW     CLOUDY    27  26  96 CALM      29.93F
6HR MIN TEMP:  20; 6HR MAX TEMP:  35;

O`NEILL        CLOUDY    32  29  88 SW9       29.91R WCI  24
ORD            CLOUDY    27  23  85 S9        29.93F WCI  18
6HR MIN TEMP:  27; 6HR MAX TEMP:  33;

THEDFORD       CLOUDY    27  23  85 SW5       29.92S WCI  21
$$

NEZ041-046>049-061>064-073>077-083>087-181300-
SOUTH CENTRAL NEBRASKA

CITY           SKY/WX    TMP DP  RH WIND       PRES   REMARKS
GRAND ISLAND   CLEAR     32  29  88 SW9       29.99F WCI  24
6HR MIN TEMP:  32; 6HR MAX TEMP:  35;

AURORA         CLEAR     32  29  90 SW8       30.00F WCI  24
HASTINGS       CLOUDY    32  28  85 SW3       30.01F
6HR MIN TEMP:  32; 6HR MAX TEMP:  35;

HEBRON         CLOUDY    31  28  90 CALM      30.05S
HOLDREGE       CLOUDY    30  27  90 SW5       29.98S WCI  25
KEARNEY *      CLOUDY    30  27  86 SW5       29.99S WCI  25
YORK           CLOUDY    32  28  86 SW9       30.02F WCI  24
$$

NEZ011>018-030>034-042>045-181300-
NORTHEAST NEBRASKA

CITY           SKY/WX    TMP DP  RH WIND       PRES   REMARKS
NORFOLK        CLEAR     32  26  78 SW8       29.94F WCI  25
6HR MIN TEMP:  31; 6HR MAX TEMP:  33;

ALBION         CLOUDY    29  25  84 SE3       29.96S
BLAIR          CLOUDY    28  27  95 S3        30.01F
FREMONT        CLOUDY    31  29  91 CALM      30.01F
TEKAMAH        CLOUDY    29  26  89 SE9       30.01F WCI  20
6HR MIN TEMP:  28; 6HR MAX TEMP:  31;

WAYNE          CLOUDY    31  28  88 S12       29.95S WCI  22
$$

NEZ050>053-065>068-078-088>093-181300-
SOUTHEAST NEBRASKA

CITY           SKY/WX    TMP DP  RH WIND       PRES   REMARKS
LINCOLN        CLOUDY    27  25  92 S7        30.05F WCI  19
6HR MIN TEMP:  24; 6HR MAX TEMP:  30;

OMAHA EPPLEY   CLOUDY    27  22  81 S12       30.05F WCI  17
6HR MIN TEMP:  24; 6HR MAX TEMP:  28;

BEATRICE       CLOUDY    27  26  96 S5        30.06S WCI  22
FALLS CITY     CLOUDY    24  22  91 S6        30.09S WCI  17
6HR MIN TEMP:  24; 6HR MAX TEMP:  29;

NEBRASKA CITY  CLOUDY    26  26  99 S10       30.06F WCI  16
PLATTSMOUTH    CLOUDY    28  25  86 S6        30.04F WCI  22
$$

NEZ044-045-051>053-067-181300-
OMAHA AREA

CITY           SKY/WX    TMP DP  RH WIND       PRES   REMARKS
OMAHA EPPLEY   CLOUDY    27  22  81 S12       30.05F WCI  17
6HR MIN TEMP:  24; 6HR MAX TEMP:  28;

BLAIR          CLOUDY    28  27  95 S3        30.01F
FREMONT        CLOUDY    31  29  91 CALM      30.01F
MILLARD        CLOUDY    25  24  93 CALM      30.04S
OFFUTT AFB     CLEAR     21  21 100 E3        30.05S
PLATTSMOUTH    CLOUDY    28  25  86 S6        30.04F WCI  22
WAHOO          FAIR      28  26  92 S3        30.02F
$$




USA.gov is the U.S. government's official web portal to all federal, state and local government web resources and services.